Home > Weather > Charleston > Past weeks

Flag for USA Weather for the Past 2 Weeks in Charleston, West Virginia, USA

Now
51 °F

Mostly cloudy.


Feels Like: 49 °F
Forecast: 51 / 67 °F
Wind: 6 mph from West

Location: Yeager Airport

Current Time: May 5, 2016 at 8:22:55 PM

Latest Report: May 5, 2016 at 7:54 PM


Visibility: 10 mi

Pressure: 29.75 "Hg

Humidity: 86%

Dew Point: 47 °F

Location of CharlestonLocation

Historic Weather in Charleston — Graph

°F

Charleston Temperature Yesterday

Maximum temperature yesterday: 65 °F (at 3:54 PM)
Minimum temperature yesterday: 51 °F (at 8:54 PM)
Average temperature yesterday: 56 °F

High & Low Weather Summary for the Past Weeks

 TemperatureHumidityPressure
High84 °F (Apr 25, 4:54 PM)100% (Apr 24, 8:54 AM)30.13 "Hg (Apr 24, 8:54 AM)
Low39 °F (Apr 24, 6:54 AM)17% (Apr 21, 7:54 PM)29.62 "Hg (May 4, 4:54 PM)
Average63 °F71%29.90 "Hg
* Reported Apr 20 6:54 PM — May 5 6:54 PM, Charleston, Weather by CustomWeather, © 2016

Note: Actual official high and low records may vary slightly from our data, if they occured in-between our weather recording intervals... More about our weather records

Advertising

Charleston Weather History for the Previous 24 Hours

Scroll right to see more
 ConditionsComfort  
Time TempWeatherWind HumidityBarometerVisibility
6:54 PM
Thu, May 5
50 °FMostly cloudy.7 mph86%29.74 "Hg10 mi
5:54 PM49 °FLow clouds.7 mph86%29.74 "Hg10 mi
4:54 PM48 °FLight rain. Fog.8 mph86%29.75 "Hg6 mi
3:54 PM49 °FLight rain. Mostly cloudy.6 mph84%29.75 "Hg9 mi
2:54 PM49 °FLight rain. Overcast.3 mph80%29.75 "Hg9 mi
1:54 PM50 °FLight rain. Mostly cloudy.6 mph68%29.75 "Hg9 mi
12:54 PM50 °FMostly cloudy.5 mph66%29.75 "Hg10 mi
11:54 AM51 °FCloudy.7 mph66%29.76 "Hg10 mi
10:54 AM48 °FMore clouds than sun.6 mph77%29.76 "Hg10 mi
9:54 AM47 °FMore clouds than sun.6 mph74%29.76 "Hg10 mi
8:54 AM46 °FMore clouds than sun.8 mph79%29.74 "Hg10 mi
7:54 AM45 °FBroken clouds.6 mph86%29.73 "Hg10 mi
6:54 AM45 °FMostly cloudy.5 mph82%29.71 "Hg10 mi
6:00 AM45 °FOvercast.7 mph86%29.69 "Hg10 mi
4:54 AM47 °FLight rain. Fog.6 mph86%29.68 "Hg2 mi
3:54 AM48 °FLight rain. Fog.6 mph86%29.67 "Hg2 mi
2:54 AM48 °FLight rain. Fog.5 mph89%29.68 "Hg2 mi
1:54 AM48 °FLight rain. Fog.5 mph89%29.69 "Hg2 mi
12:54 AM49 °FLight rain. Fog.7 mph90%29.70 "Hg2 mi
11:54 PM
Wed, May 4
51 °FLight rain. Fog.6 mph92%29.68 "Hg2 mi
10:54 PM51 °FRain. Fog.No wind96%29.70 "Hg2 mi
9:54 PM51 °FLight rain. Fog.3 mph92%29.69 "Hg2 mi
8:54 PM51 °FLight rain. Overcast.3 mph89%29.69 "Hg7 mi
Weather by CustomWeather, © 2016

See weather overviewHow to use our weather pages